GW1508 Weather Reports


time (UTC)temp
F
wind
direction
speed
knots
gust
knots
rain 1hr
in
rain 24hr
in
rain mn
in
humidity
%
barometer
mb
20260502225843 18 98 0.0 0.0 0.00 0.00 0.00 91 1029.1
20260502222844 19 98 0.0 0.0 0.00 0.00 0.00 91 1029.2
20260502221336 20 98 0.0 0.0 0.00 0.00 0.00 91 1029.2
20260502214348 22 98 0.0 0.0 0.00 0.00 0.00 92 1029.2
20260502212843 22 98 0.0 0.0 0.00 0.00 0.00 92 1029.2
20260502205848 24 98 0.0 0.0 0.00 0.00 0.00 92 1029.2
20260502202849 25 98 0.0 0.0 0.00 0.00 0.00 92 1029.1
20260502201348 26 98 0.0 0.0 0.00 0.00 0.00 92 1029.1
20260502195839 26 98 0.0 0.0 0.00 0.00 0.00 91 1029.1
20260502192843 27 98 0.0 0.0 0.00 0.00 0.00 89 1028.8
20260502185851 30 98 0.0 0.0 0.00 0.00 0.00 84 1028.6
20260502182847 33 98 0.0 0.0 0.00 0.00 0.00 82 1028.4
20260502181338 35 98 0.0 0.0 0.00 0.00 0.00 82 1028.3
20260502164338 48 84 1.7 5.2 0.00 0.00 0.00 67 1028.4
20260502161345 49 99 0.9 4.3 0.00 0.00 0.00 66 1028.5
20260502151332 53 80 1.7 5.2 0.00 0.00 0.00 60 1029.2
20260502121348 53 63 1.7 5.2 0.00 0.00 0.00 60 1030.8
20260502115847 52 90 1.7 8.7 0.00 0.00 0.00 59 1030.8
20260502112851 52 233 1.7 6.1 0.00 0.00 0.00 60 1031.2
20260502111345 53 47 0.9 6.1 0.00 0.00 0.00 61 1031.2
20260502104350 51 257 0.0 5.2 0.00 0.00 0.00 59 1031.8
20260502101355 51 83 1.7 7.0 0.00 0.00 0.00 59 1032.0
20260502091341 52 78 0.9 4.3 0.00 0.00 0.00 58 1032.1
20260502071348 47 98 0.0 4.3 0.00 0.00 0.00 63 1033.0
20260502062847 41 137 0.0 3.5 0.00 0.00 0.00 82 1033.2
20260502061340 32 116 0.9 4.3 0.00 0.00 0.00 93 1033.3
20260502055835 23 255 0.0 0.0 0.00 0.00 0.00 93 1033.4
20260502054329 19 254 0.0 0.9 0.00 0.00 0.00 93 1033.3
20260502051336 17 255 0.0 0.0 0.00 0.00 0.00 93 1033.1
20260502044348 15 255 0.0 0.0 0.00 0.00 0.00 92 1033.0
20260502041346 15 255 0.0 0.0 0.00 0.00 0.00 92 1033.0
20260502034350 16 255 0.0 0.0 0.00 0.00 0.00 92 1032.7
20260502032840 16 255 0.0 0.0 0.00 0.00 0.00 92 1032.8
20260502025847 17 255 0.0 0.0 0.00 0.00 0.00 92 1032.7
20260502024339 17 255 0.0 0.0 0.00 0.00 0.00 92 1032.7
20260502022833 17 255 0.0 0.0 0.00 0.00 0.00 92 1032.6
20260502015847 18 255 0.0 0.0 0.00 0.00 0.00 92 1032.4
20260502012850 18 255 0.0 0.0 0.00 0.00 0.00 92 1032.6
20260502011338 18 255 0.0 0.0 0.00 0.00 0.00 92 1032.6
20260502005831 19 254 0.0 0.0 0.00 0.00 0.00 92 1032.6
20260502002900 20 255 0.0 0.0 0.00 0.00 0.00 92 1032.5
20260502001341 20 255 0.0 0.0 0.00 0.00 0.00 92 1032.2
20260501234345 21 255 0.0 0.0 0.00 0.00 0.00 92 1032.2